TimeEDT,TemperatureF,Dew PointF,Humidity,Sea Level PressureIn,VisibilityMPH,Wind Direction,Wind SpeedMPH,Gust SpeedMPH,PrecipitationIn,Events,Conditions,WindDirDegrees,DateUTC
12:53 AM,75.9,73.0,91,29.91,8.0,WSW,8.1,-,N/A,,Mostly Cloudy,240,2013-08-31 04:53:00
1:53 AM,75.9,73.0,91,29.91,7.0,WSW,4.6,-,N/A,,Mostly Cloudy,250,2013-08-31 05:53:00
2:53 AM,75.0,73.0,94,29.91,6.0,West,4.6,-,N/A,,Scattered Clouds,260,2013-08-31 06:53:00
3:53 AM,73.9,72.0,93,29.91,7.0,West,6.9,-,N/A,,Scattered Clouds,260,2013-08-31 07:53:00
4:53 AM,73.9,72.0,93,29.91,7.0,WSW,4.6,-,N/A,,Mostly Cloudy,250,2013-08-31 08:53:00
5:53 AM,73.9,71.1,91,29.92,7.0,West,5.8,-,N/A,,Scattered Clouds,260,2013-08-31 09:53:00
6:28 AM,73.4,71.6,94,29.96,6.0,SSW,8.1,-,0.00,Rain-Thunderstorm,Light Thunderstorms and Rain,210,2013-08-31 10:28:00
6:53 AM,73.9,72.0,93,29.92,6.0,West,6.9,-,0.00,Rain-Thunderstorm,Light Thunderstorms and Rain,270,2013-08-31 10:53:00
7:16 AM,73.4,71.6,94,29.96,8.0,WSW,8.1,-,0.00,,Mostly Cloudy,250,2013-08-31 11:16:00
7:45 AM,73.4,71.6,94,29.98,2.0,West,4.6,-,0.00,Rain,Rain,270,2013-08-31 11:45:00
7:51 AM,73.4,73.4,100,29.98,2.0,WSW,6.9,-,0.02,Rain-Thunderstorm,Thunderstorms and Rain,240,2013-08-31 11:51:00
7:53 AM,73.9,73.0,97,29.95,2.0,WSW,5.8,-,0.03,Rain-Thunderstorm,Thunderstorms and Rain,250,2013-08-31 11:53:00
8:16 AM,73.4,73.4,100,29.97,2.5,SSW,6.9,-,0.20,Rain,Light Rain,210,2013-08-31 12:16:00
8:24 AM,73.4,71.6,94,29.97,3.0,SW,6.9,-,0.20,,Mostly Cloudy,220,2013-08-31 12:24:00
8:44 AM,75.2,73.4,94,29.97,2.5,SW,8.1,-,0.20,,Mostly Cloudy,220,2013-08-31 12:44:00
8:53 AM,75.0,73.0,94,29.94,2.5,SSW,8.1,-,0.20,,Mostly Cloudy,210,2013-08-31 12:53:00
9:18 AM,75.2,73.4,94,29.98,2.5,SSW,6.9,-,N/A,,Mostly Cloudy,210,2013-08-31 13:18:00
9:53 AM,75.9,73.0,91,29.96,2.5,SW,3.5,-,N/A,,Mostly Cloudy,230,2013-08-31 13:53:00
10:14 AM,78.8,73.4,83,29.99,3.0,Variable,3.5,-,N/A,,Mostly Cloudy,0,2013-08-31 14:14:00
10:53 AM,80.1,73.9,81,29.94,4.0,Calm,Calm,-,N/A,,Haze,0,2013-08-31 14:53:00
11:15 AM,80.6,73.4,79,29.98,4.0,WSW,6.9,-,N/A,,Haze,240,2013-08-31 15:15:00
11:53 AM,82.0,73.0,74,29.95,6.0,West,9.2,-,N/A,,Haze,260,2013-08-31 15:53:00
12:23 PM,82.4,73.4,74,29.97,6.0,SW,5.8,-,N/A,,Haze,230,2013-08-31 16:23:00
12:53 PM,84.9,73.9,69,29.93,6.0,WSW,4.6,-,N/A,,Haze,240,2013-08-31 16:53:00
1:53 PM,84.9,73.0,67,29.91,7.0,WSW,6.9,-,N/A,,Scattered Clouds,240,2013-08-31 17:53:00
2:53 PM,88.0,72.0,59,29.88,7.0,West,9.2,-,N/A,,Scattered Clouds,260,2013-08-31 18:53:00
3:53 PM,88.0,71.1,57,29.85,10.0,West,5.8,-,N/A,,Scattered Clouds,260,2013-08-31 19:53:00
4:53 PM,89.1,70.0,53,29.83,10.0,SW,9.2,-,N/A,,Scattered Clouds,230,2013-08-31 20:53:00
5:53 PM,89.1,69.1,52,29.83,10.0,WSW,8.1,-,N/A,,Mostly Cloudy,240,2013-08-31 21:53:00
6:53 PM,87.1,70.0,57,29.84,10.0,SW,10.4,-,N/A,,Scattered Clouds,230,2013-08-31 22:53:00
7:53 PM,82.0,71.1,69,29.85,10.0,WSW,4.6,-,N/A,,Mostly Cloudy,240,2013-08-31 23:53:00
8:53 PM,81.0,71.1,72,29.88,10.0,SW,5.8,-,N/A,,Mostly Cloudy,230,2013-09-01 00:53:00
9:53 PM,79.0,70.0,74,29.88,10.0,NNW,17.3,24.2,N/A,,Mostly Cloudy,330,2013-09-01 01:53:00
9:57 PM,77.0,68.0,74,29.93,10.0,NNW,16.1,24.2,N/A,Thunderstorm,Mostly Cloudy,340,2013-09-01 01:57:00
10:06 PM,75.2,66.2,73,29.93,10.0,North,10.4,19.6,N/A,Thunderstorm,Overcast,350,2013-09-01 02:06:00
10:31 PM,75.2,68.0,78,29.93,5.0,North,10.4,-,0.00,Rain-Thunderstorm,Light Thunderstorms and Rain,360,2013-09-01 02:31:00
10:53 PM,73.9,69.1,85,29.91,10.0,ESE,6.9,-,0.01,Rain,Light Rain,110,2013-09-01 02:53:00
11:53 PM,71.1,68.0,90,29.89,10.0,East,4.6,-,0.00,,Overcast,100,2013-09-01 03:53:00